Regional Weather Roundup
Issued by NWS

Home | Current Version | Previous Version | Graphics & Text | Print | Product List | Glossary On
Versions: 1 2 3 4 5 6 7 8 9 10 11 12 13 14 15 16 17 18 19 20 21 22 23 24 25 26 27 28 29 30 31 32 33 34 35 36 37 38 39 40 41 42 43 44 45 46 47 48 49 50
000
ASUS43 KMPX 290001
RWRMN
WEATHER ROUNDUP FOR MINNESOTA
NATIONAL WEATHER SERVICE TWIN CITIES/CHANHASSEN MN
600 PM CST WED JAN 28 2015


NOTE: "FAIR" INDICATES FEW OR NO CLOUDS BELOW 12,000 FEET WITH NO
SIGNIFICANT WEATHER AND/OR OBSTRUCTIONS TO VISIBILITY. N/A MEANS
CURRENT SKY AND/OR WEATHER CONDITIONS ARE NOT AVAILABLE.

MNZ060>063-068>070-290100-
   Twin Cities Metro

CITY           SKY/WX    TMP DP  RH WIND       PRES   REMARKS
TWIN CITIES    CLOUDY    31  27  85 SE10      29.81F FOG     WCI  22
6HR MIN TEMP:  28; 6HR MAX TEMP:  31;

ST PAUL        CLOUDY    31  26  82 SE8       29.83R HAZE    WCI  23
CRYSTAL        CLOUDY    32  28  85 E5        29.81S FOG     WCI  27
BLAINE         CLOUDY    32  30  93 E3        29.82R FOG
LAKEVILLE      MOCLDY    30  28  93 E5        29.80S FOG     WCI  25
EDEN PRAIRIE   CLOUDY    32  27  81 E7        29.79F HAZE    WCI  26
6HR MIN TEMP:  29; 6HR MAX TEMP:  32;

SOUTH ST PAUL  CLOUDY    32  27  83 E5        29.82S HAZE    WCI  27
LAKE ELMO      CLOUDY    32  28  86 SE5       29.83R WCI  27
$$
MNZ001>005-007-008-013>017-022>024-027-028-290100-
   Northwest Minnesota

CITY           SKY/WX    TMP DP  RH WIND       PRES   REMARKS
BEMIDJI        RAIN      31  31  99 CALM      29.79R VSB 1
HALLOCK        CLOUDY    28  28 100 NW22      29.89R FOG     WCI  15
ROSEAU         CLOUDY    34  28  80 NW8       29.83R FOG     WCI  27
WARROAD        CLOUDY    32  28  86 NW6       29.83R FOG     WCI  26
THIEF RVR FALL CLOUDY    32  32 100 NW10      29.83R WCI  24
CROOKSTON      CLOUDY    32  32 100 N15       29.86R FOG     WCI  22
FOSSTON        MIX PCPN  30  30 100 W8        29.82R WCI  23
DETROIT LAKES  CLOUDY    32  32 100 W8        29.82R FOG     WCI  25
MOORHEAD       CLOUDY    34  34 100 NW12      29.85R FOG     WCI  25
PARK RAPIDS    FOG       31  31 100 W3        29.79R VSB 1
MAHNOMEN       CLOUDY    32  32  99 W9        29.81R FOG     WCI  24
$$
MNZ006-009>011-018-025>026-290100-
   North Central Minnesota

CITY           SKY/WX    TMP DP  RH WIND       PRES   REMARKS
BAUDETTE       CLOUDY    31  30  96 CALM      29.80R FOG
FLAG ISLAND    DRIZZLE   28  28 100 NW3       29.82R
INTL FALLS     CLOUDY    27  25  92 CALM      29.81R FOG
6HR MIN TEMP:  27; 6HR MAX TEMP:  28;

WASKISH        MIX PCPN  32  30  93 CALM      29.81R
BIG FORK       MIX PCPN  28  27  93 CALM      29.81R
LONGVILLE      CLOUDY    28  28 100 CALM      29.80S FOG
GRAND RAPIDS   CLOUDY    27  25  93 S7        29.80R WCI  19
CRANE LAKE     CLOUDY    25  23  93 CALM      29.84S FOG
ORR            CLOUDY    25  21  86 CALM      29.79R FOG
COOK           CLOUDY    27  25  93 CALM      29.81S FOG
WALKER         CLOUDY    30  29  99 CALM      29.80R FOG
$$
MNZ012-019>021-037-290100-
   Northeast Minnesota

CITY           SKY/WX    TMP DP  RH WIND       PRES   REMARKS
DULUTH         CLOUDY    29  22  75 S5        29.82R WCI  24
6HR MIN TEMP:  25; 6HR MAX TEMP:  29;

ELY            CLOUDY    27  23  86 SW3       29.81R
HIBBING        CLOUDY    28  22  78 CALM      29.81R
EVELETH        CLOUDY    28  25  86 CALM      29.82S
DULUTH HARBOR  CLOUDY    32  27  80 CALM      29.87R
TWO HARBORS    CLOUDY    30  25  80 CALM      29.82R
SILVER BAY     CLOUDY    28  25  86 CALM      29.82R
GRAND MARAIS     N/A     30  25  81 CALM      29.85F
G MARAIS ARPRT   N/A     25  21  86 CALM      29.79F FOG
$$
MNZ029>031-032-039>041-046>048-054>057-064-290100-
   West Central Minnesota

CITY           SKY/WX    TMP DP  RH WIND       PRES   REMARKS
FERGUS FALLS   FOG       32  32 100 W3        29.85R VSB 1/2
WHEATON        CLOUDY    32  30  93 CALM      29.84R FOG
MORRIS         FOG       32  32 100 CALM      29.80R VSB 1/4
ALEXANDRIA     CLOUDY    31  30  96 CALM      29.80R FOG
ELBOW LAKE     FOG       31  31 100 S3        29.81R VSB 1/2
WADENA         FOG       28  28 100 CALM      29.80R VSB 1/2
GLENWOOD       FOG       30  30 100 CALM      29.81R VSB 1
APPLETON       CLOUDY    34  32  93 CALM      29.81R FOG
BENSON         CLOUDY    32  32 100 CALM      29.81R FOG
ORTONVILLE     CLOUDY    34  30  86 N3        29.81R FOG
MADISON        CLOUDY    37  36  93 NE5       29.80R FOG
WILLMAR        FOG       34  30  86 E3        29.81R VSB 1
$$
MNZ033>034-036-042>043-049>051-058-059-290100-
   Central Minnesota

CITY           SKY/WX    TMP DP  RH WIND       PRES   REMARKS
ST CLOUD       CLOUDY    29  28  96 E3        29.81R FOG
6HR MIN TEMP:  29; 6HR MAX TEMP:  30;

SAUK CENTRE    CLOUDY    30  30  99 CALM      29.81R FOG
PAYNESVILLE    CLOUDY    28  28 100 NE3       29.80R FOG
AITKIN         CLOUDY    30  25  80 CALM      29.80S HAZE
PINE RIVER     CLOUDY    28  28 100 S3        29.84R FOG
BRAINERD       CLOUDY    29  27  92 S3        29.82R FOG
STAPLES        CLOUDY    28  28 100 CALM      29.80R FOG
LONG PRAIRIE   CLOUDY    30  30 100 E3        29.80R FOG
LITTLE FALLS   CLOUDY    30  28  93 CALM      29.82R FOG
LITCHFIELD     CLOUDY    32  32 100 E6        29.79S FOG     WCI  26
BUFFALO        CLOUDY    31  29  92 NE3       29.82R FOG
MAPLE LAKE     CLOUDY    31  31  97 E3        29.82R FOG
$$
MNZ037-044-045-052-053-290100-
   East Central Minnesota

CITY           SKY/WX    TMP DP  RH WIND       PRES   REMARKS
PRINCETON      CLOUDY    30  28  93 CALM      29.83R FOG
MORA           CLOUDY    28  25  86 CALM      29.85R
CAMBRIDGE      CLOUDY    30  25  80 CALM      29.81S HAZE
RUSH CITY      CLOUDY    30  26  84 CALM      29.83S
MOOSE LAKE     CLOUDY    30  27  86 CALM      29.82R FOG
HINCKLEY       CLOUDY    30  28  93 S3        29.84R FOG
CLOQUET        CLOUDY    28  23  80 CALM      29.82R
MCGREGOR       CLOUDY    30  27  86 CALM      29.82S
$$
MNZ071>073-080-081-089-090-097-098-290100-
   Southwest Minnesota

CITY           SKY/WX    TMP DP  RH WIND       PRES   REMARKS
MONTEVIDEO     CLOUDY    32  32 100 CALM      29.82R FOG
GRANITE FALLS  CLOUDY    32  32  97 CALM      29.81R FOG
CANBY          CLOUDY    34  32  94 N3        29.80R FOG
MARSHALL       CLOUDY    34  30  86 CALM      29.79R
REDWOOD FALLS  CLOUDY    33  31  92 SE3       29.77R FOG
OLIVIA         CLOUDY    32  32 100 SE3       29.77R FOG
PIPESTONE      CLOUDY    36  34  93 CALM      29.74R FOG
WINDOM         CLOUDY    34  32  93 CALM      29.76R FOG
WORTHINGTON    CLOUDY    34  30  86 N3        29.75R
JACKSON        CLOUDY    32  32 100 CALM      29.76R FOG
TRACY          CLOUDY    34  32  94 CALM      29.76R FOG
SLAYTON        CLOUDY    32  32  99 CALM      29.75R FOG
$$
MNZ065>067-074>077-082>085-091>093-290100-
   South Central Minnesota

CITY           SKY/WX    TMP DP  RH WIND       PRES   REMARKS
MANKATO        CLOUDY    34  28  80 E6        29.78R WCI  29
NEW ULM        CLOUDY    34  30  86 CALM      29.78R FOG
ST JAMES       CLOUDY    34  32  93 CALM      29.78R FOG
FAIRMONT       CLOUDY    34  28  80 CALM      29.75R
GLENCOE        CLOUDY    33  32  96 E3        29.79R FOG
FARIBAULT      CLOUDY    34  30  86 SE3       29.79F
OWATONNA       MOCLDY    34  30  86 SE6       29.79R FOG     WCI  29
WASECA         CLOUDY    32  30  93 E3        29.79S FOG
ALBERT LEA     CLOUDY    34  32  93 SE8       29.75R FOG     WCI  27
$$
MNZ078>079-086>088-094>096-290100-
   Southeast Minnesota

CITY           SKY/WX    TMP DP  RH WIND       PRES   REMARKS
ROCHESTER      CLOUDY    33  28  81 SE18      29.77F WCI  22
6HR MIN TEMP:  28; 6HR MAX TEMP:  33;

RED WING       CLOUDY    32  27  80 SE6       29.83R HAZE    WCI  26
STANTON        CLOUDY    34  28  80 CALM      29.80R
DODGE CENTER   CLOUDY    34  30  86 SE13      29.78R FOG     WCI  25
WINONA         CLOUDY    34  27  75 SE6       29.82F WCI  29
AUSTIN         CLOUDY    34  28  80 S7G16     29.76S WCI  28
PRESTON        CLOUDY    32  27  81 S18G24    29.78F WCI  20
$$
ABBREVIATIONS USED IN REMARKS
   TC - TEMPERATURES IN CELSIUS
  WCI - WIND CHILL INDEX
   HX - HEAT INDEX
  VSB - VISIBILITY
$$


USA.gov is the U.S. government's official web portal to all federal, state and local government web resources and services.